Portada
METAR-TAF:

METAR-TAF

Aeroports :

Minneapolis-Crystal, Minnesota, Estats Units d'Amèrica

Crystal Airport

latitud: 45-03-45N, longitud: 093-21-03W, altitud: 264 m

Observació

L'informe es va fer fa 11 minuts, a les 04:53 UTC
Vent 8 kt del Nord
Temperatura 7°C
Humitat 45%
Pressió 1024 hPa
Visibilitat: 16.1 km
Cel clar

METAR: KMIC 250453Z AUTO 01008KT 10SM CLR 07/M04 A3023 RMK AO2 SLP241 T00721039

Hora: 00:04 (05:04 UTC)


TAF: manca

Observacions i pronòstics meteorològics de més de 4000 aeroports (METAR i TAF).

Les estacions disponibles són els punts grocs i vermells al mapa.

Posi el ratolí al punt desitjat per veure el nom de l'estació.

Feu clic per veure les observacions i els pronòstics meteorològics.

Per canviar el mapa: feu clic els botons verds amb una creu de color negre per apropar; al botó verd amb un guió per allunyar la imatge; o en les fletxes verdes per a mapes adjacents.


METAR-TAF: